QPF
0.13 0.15 0.16 0.15 0.17 0.22 0.22 0.22 0.20 0.22 0.19 0.18 0.16 0.15 0.14 0.13 0.07 0.06 0.10 0.13 0.05 0.03 0.02 0.02 0.02 0.04 0.04 0.03 0.02 0.02 0.02 0.02 0.02 0.02 0.02 0.02 0.02 0.01 0.01 0.00 0.00 0.00 0.00
0.05 0.07 0.09 0.11 0.11 0.14 0.14 0.14 0.14 0.15 0.16 0.16 0.17 0.20 0.15 0.13 0.12 0.14 0.15 0.17 0.09 0.04 0.02 0.02 0.02 0.03 0.05 0.05 0.04 0.04 0.02 0.01 0.01 0.01 0.01 0.01 0.02 0.01 0.01 0.00 0.00 0.00 0.00
0.01 0.02 0.04 0.06 0.07 0.08 0.08 0.07 0.07 0.07 0.07 0.08 0.09 0.11 0.11 0.10 0.10 0.12 0.10 0.11 0.11 0.07 0.03 0.02 0.03 0.02 0.03 0.04 0.05 0.05 0.04 0.02 0.01 0.00 0.01 0.01 0.01 0.01 0.01 0.00 0.00 0.00 0.00
0.01 0.01 0.02 0.03 0.04 0.04 0.04 0.04 0.05 0.05 0.05 0.06 0.06 0.05 0.05 0.06 0.06 0.09 0.09 0.06 0.07 0.06 0.06 0.05 0.03 0.02 0.02 0.02 0.03 0.04 0.05 0.04 0.03 0.01 0.00 0.00 0.00 0.00 0.00 0.00 0.00 0.00 0.00
0.00 0.00 0.01 0.02 0.01 0.01 0.01 0.01 0.03 0.04 0.04 0.04 0.03 0.03 0.02 0.02 0.02 0.03 0.03 0.03 0.04 0.04 0.05 0.06 0.05 0.03 0.02 0.01 0.01 0.02 0.04 0.04 0.03 0.03 0.01 0.01 0.00 0.00 0.00 0.00 0.00 0.00 0.00
0.00 0.00 0.00 0.01 0.00 0.00 0.01 0.01 0.02 0.02 0.02 0.02 0.01 0.01 0.01 0.01 0.01 0.01 0.02 0.03 0.03 0.03 0.03 0.06 0.10 0.05 0.03 0.02 0.01 0.02 0.03 0.03 0.03 0.04 0.03 0.02 0.01 0.00 0.00 0.00 0.00 0.00 0.00
0.00 0.00 0.00 0.00 0.01 0.01 0.01 0.01 0.01 0.01 0.01 0.01 0.01 0.01 0.01 0.01 0.01 0.02 0.03 0.03 0.03 0.04 0.04 0.05 0.06 0.07 0.06 0.03 0.02 0.02 0.03 0.03 0.03 0.04 0.04 0.03 0.01 0.00 0.00 0.00 0.00 0.00 0.00
0.00 0.00 0.00 0.00 0.00 0.01 0.01 0.01 0.02 0.01 0.01 0.00 0.01 0.01 0.01 0.02 0.04 0.03 0.06 0.06 0.05 0.07 0.06 0.06 0.07 0.09 0.07 0.10 0.03 0.01 0.02 0.03 0.03 0.03 0.03 0.03 0.02 0.01 0.00 0.00 0.00 0.00 0.00
0.00 0.00 0.00 0.00 0.00 0.00 0.01 0.01 0.01 0.02 0.02 0.01 0.00 0.01 0.01 0.02 0.03 0.04 0.06 0.07 0.09 0.08 0.07 0.07 0.06 0.08 0.09 0.10 0.10 0.06 0.03 0.03 0.05 0.05 0.04 0.04 0.03 0.02 0.01 0.01 0.00 0.00 0.00
0.00 0.00 0.00 0.00 0.00 0.00 0.00 0.00 0.01 0.01 0.01 0.01 0.01 0.01 0.01 0.02 0.02 0.02 0.03 0.07 0.09 0.09 0.08 0.05 0.03 0.05 0.09 0.10 0.11 0.10 0.06 0.05 0.06 0.08 0.08 0.07 0.05 0.04 0.03 0.02 0.01 0.01 0.00
0.00 0.00 0.00 0.00 0.00 0.00 0.00 0.00 0.01 0.01 0.01 0.01 0.01 0.01 0.01 0.02 0.02 0.02 0.02 0.03 0.05 0.06 0.08 0.07 0.05 0.05 0.08 0.09 0.10 0.11 0.10 0.07 0.07 0.09 0.11 0.11 0.09 0.07 0.05 0.05 0.06 0.03 0.01
0.00 0.00 0.00 0.00 0.00 0.00 0.00 0.00 0.00 0.00 0.00 0.01 0.01 0.01 0.01 0.01 0.02 0.02 0.02 0.02 0.02 0.02 0.05 0.06 0.07 0.08 0.08 0.08 0.08 0.09 0.11 0.11 0.08 0.07 0.09 0.11 0.12 0.09 0.07 0.07 0.07 0.06 0.04
0.00 0.00 0.00 0.00 0.00 0.00 0.00 0.00 0.00 0.00 0.00 0.01 0.01 0.01 0.01 0.01 0.01 0.01 0.01 0.01 0.01 0.01 0.02 0.03 0.04 0.07 0.08 0.10 0.10 0.09 0.10 0.10 0.10 0.09 0.08 0.08 0.09 0.10 0.09 0.07 0.07 0.07 0.07
0.00 0.00 0.00 0.00 0.00 0.00 0.00 0.00 0.00 0.00 0.00 0.00 0.00 0.00 0.00 0.00 0.00 0.00 0.01 0.01 0.01 0.01 0.02 0.03 0.05 0.07 0.09 0.10 0.11 0.08 0.08 0.08 0.07 0.08 0.08 0.07 0.08 0.09 0.09 0.09 0.08 0.07 0.07
0.00 0.00 0.00 0.00 0.00 0.01 0.01 0.01 0.01 0.01 0.01 0.01 0.00 0.00 0.00 0.00 0.00 0.00 0.00 0.00 0.01 0.01 0.01 0.02 0.05 0.08 0.13 0.14 0.13 0.09 0.09 0.08 0.06 0.07 0.07 0.07 0.07 0.07 0.07 0.08 0.07 0.07 0.06
0.00 0.00 0.00 0.01 0.01 0.01 0.01 0.01 0.01 0.01 0.01 0.01 0.01 0.01 0.00 0.00 0.00 0.00 0.00 0.00 0.00 0.01 0.01 0.01 0.03 0.06 0.10 0.12 0.15 0.15 0.13 0.10 0.07 0.07 0.07 0.07 0.07 0.07 0.07 0.07 0.07 0.06 0.05
0.01 0.01 0.01 0.01 0.01 0.01 0.01 0.02 0.01 0.01 0.01 0.01 0.01 0.01 0.01 0.01 0.00 0.00 0.00 0.00 0.00 0.01 0.01 0.01 0.01 0.03 0.06 0.08 0.11 0.14 0.19 0.20 0.14 0.10 0.09 0.08 0.08 0.08 0.08 0.08 0.08 0.07 0.06
0.01 0.01 0.01 0.01 0.01 0.01 0.01 0.01 0.01 0.01 0.01 0.01 0.01 0.02 0.01 0.01 0.01 0.01 0.01 0.01 0.01 0.01 0.01 0.01 0.01 0.01 0.03 0.05 0.08 0.09 0.12 0.17 0.20 0.18 0.13 0.11 0.10 0.10 0.10 0.09 0.09 0.08 0.07
0.01 0.01 0.01 0.01 0.01 0.01 0.01 0.01 0.01 0.01 0.01 0.01 0.01 0.02 0.02 0.02 0.02 0.02 0.02 0.01 0.01 0.01 0.01 0.01 0.01 0.01 0.02 0.04 0.07 0.08 0.09 0.13 0.14 0.16 0.16 0.13 0.10 0.09 0.10 0.10 0.10 0.10 0.09
0.01 0.01 0.01 0.01 0.01 0.01 0.01 0.01 0.01 0.01 0.02 0.02 0.02 0.02 0.02 0.02 0.03 0.03 0.03 0.03 0.02 0.02 0.02 0.01 0.01 0.01 0.02 0.04 0.08 0.10 0.10 0.12 0.14 0.13 0.11 0.10 0.10 0.10 0.10 0.11 0.11 0.10 0.10
0.00 0.00 0.00 0.00 0.00 0.00 0.00 0.00 0.01 0.01 0.01 0.01 0.02 0.02 0.03 0.02 0.02 0.02 0.01 0.02 0.02 0.02 0.02 0.02 0.01 0.01 0.02 0.04 0.08 0.12 0.14 0.16 0.17 0.17 0.13 0.09 0.08 0.08 0.08 0.10 0.13 0.14 0.12
0.00 0.00 0.00 0.00 0.00 0.00 0.00 0.00 0.00 0.00 0.00 0.01 0.01 0.02 0.03 0.02 0.01 0.00 0.00 0.00 0.00 0.00 0.01 0.01 0.01 0.02 0.02 0.04 0.07 0.12 0.14 0.17 0.18 0.21 0.19 0.15 0.15 0.13 0.11 0.10 0.11 0.14 0.16
0.00 0.00 0.00 0.00 0.00 0.00 0.00 0.00 0.00 0.00 0.00 0.00 0.01 0.02 0.02 0.01 0.02 0.03 0.03 0.01 0.00 0.00 0.00 0.00 0.00 0.01 0.01 0.03 0.06 0.09 0.14 0.18 0.21 0.26 0.28 0.22 0.18 0.18 0.17 0.15 0.15 0.13 0.16
0.00 0.00 0.00 0.00 0.00 0.00 0.00 0.00 0.00 0.00 0.00 0.00 0.01 0.02 0.04 0.04 0.05 0.05 0.05 0.04 0.03 0.02 0.01 0.01 0.00 0.00 0.01 0.02 0.04 0.06 0.10 0.14 0.19 0.27 0.31 0.29 0.25 0.19 0.17 0.17 0.19 0.17 0.15
0.00 0.00 0.00 0.00 0.01 0.01 0.00 0.00 0.00 0.00 0.00 0.00 0.01 0.02 0.04 0.06 0.05 0.01 0.01 0.02 0.02 0.02 0.01 0.00 0.00 0.00 0.00 0.00 0.01 0.02 0.05 0.09 0.12 0.18 0.28 0.28 0.25 0.23 0.20 0.18 0.19 0.22 0.19
0.00 0.00 0.00 0.00 0.01 0.01 0.01 0.00 0.00 0.00 0.00 0.00 0.02 0.03 0.02 0.02 0.01 0.00 0.01 0.02 0.02 0.02 0.03 0.03 0.02 0.01 0.00 0.00 0.00 0.00 0.02 0.04 0.09 0.14 0.18 0.21 0.21 0.20 0.21 0.20 0.19 0.20 0.21
MSLP
1015.73 1015.57 1015.31 1015.06 1014.88 1014.83 1014.94 1015.17 1015.47 1015.76 1015.96 1016.03 1015.96 1015.76 1015.49 1015.22 1015.03 1014.97 1015.06 1015.30 1015.67 1016.10 1016.57 1017.04 1017.48 1017.89 1018.28 1018.66 1019.03 1019.40 1019.78 1020.17 1020.55 1020.92 1021.28 1021.63 1021.97 1022.30 1022.62 1022.94 1023.24 1023.52 1023.79
1015.94 1015.76 1015.50 1015.23 1015.04 1014.96 1015.02 1015.20 1015.45 1015.70 1015.88 1015.94 1015.87 1015.68 1015.42 1015.15 1014.92 1014.80 1014.82 1014.97 1015.25 1015.62 1016.04 1016.49 1016.94 1017.37 1017.79 1018.20 1018.59 1018.99 1019.37 1019.76 1020.15 1020.54 1020.93 1021.32 1021.71 1022.09 1022.46 1022.80 1023.12 1023.41 1023.67
1016.18 1015.99 1015.73 1015.47 1015.28 1015.19 1015.21 1015.35 1015.54 1015.74 1015.88 1015.92 1015.84 1015.66 1015.39 1015.10 1014.83 1014.65 1014.58 1014.64 1014.82 1015.10 1015.46 1015.87 1016.32 1016.77 1017.21 1017.64 1018.06 1018.47 1018.87 1019.27 1019.67 1020.08 1020.50 1020.93 1021.36 1021.79 1022.20 1022.58 1022.92 1023.22 1023.49
1016.38 1016.19 1015.96 1015.73 1015.56 1015.47 1015.47 1015.56 1015.70 1015.85 1015.94 1015.95 1015.86 1015.66 1015.39 1015.07 1014.77 1014.52 1014.36 1014.32 1014.39 1014.58 1014.87 1015.23 1015.65 1016.09 1016.55 1017.01 1017.45 1017.87 1018.28 1018.69 1019.10 1019.52 1019.97 1020.44 1020.92 1021.40 1021.85 1022.27 1022.64 1022.97 1023.25
1016.48 1016.32 1016.13 1015.96 1015.83 1015.76 1015.76 1015.82 1015.92 1016.00 1016.05 1016.02 1015.90 1015.69 1015.40 1015.07 1014.74 1014.43 1014.19 1014.05 1014.02 1014.10 1014.30 1014.60 1014.98 1015.41 1015.86 1016.32 1016.77 1017.19 1017.61 1018.02 1018.44 1018.88 1019.35 1019.85 1020.37 1020.89 1021.40 1021.86 1022.28 1022.64 1022.95
1016.47 1016.35 1016.24 1016.14 1016.07 1016.04 1016.06 1016.10 1016.15 1016.18 1016.18 1016.11 1015.97 1015.75 1015.46 1015.12 1014.76 1014.41 1014.10 1013.88 1013.75 1013.73 1013.84 1014.06 1014.38 1014.76 1015.19 1015.63 1016.06 1016.48 1016.88 1017.29 1017.70 1018.14 1018.63 1019.15 1019.71 1020.28 1020.83 1021.35 1021.82 1022.22 1022.57
1016.35 1016.30 1016.27 1016.26 1016.27 1016.29 1016.33 1016.36 1016.39 1016.38 1016.33 1016.23 1016.07 1015.85 1015.57 1015.23 1014.87 1014.49 1014.14 1013.84 1013.62 1013.51 1013.52 1013.65 1013.89 1014.21 1014.58 1014.97 1015.37 1015.76 1016.13 1016.51 1016.91 1017.34 1017.83 1018.37 1018.95 1019.56 1020.16 1020.74 1021.26 1021.72 1022.12
1016.19 1016.20 1016.25 1016.33 1016.42 1016.51 1016.58 1016.61 1016.62 1016.58 1016.50 1016.38 1016.22 1016.01 1015.74 1015.43 1015.07 1014.69 1014.31 1013.95 1013.66 1013.47 1013.38 1013.41 1013.55 1013.78 1014.07 1014.39 1014.73 1015.06 1015.39 1015.73 1016.09 1016.50 1016.97 1017.51 1018.11 1018.75 1019.40 1020.02 1020.60 1021.11 1021.57
1016.03 1016.10 1016.23 1016.39 1016.55 1016.69 1016.79 1016.83 1016.82 1016.77 1016.67 1016.55 1016.39 1016.20 1015.97 1015.69 1015.36 1014.99 1014.60 1014.21 1013.87 1013.59 1013.41 1013.34 1013.37 1013.50 1013.69 1013.92 1014.17 1014.43 1014.69 1014.96 1015.28 1015.65 1016.10 1016.63 1017.22 1017.88 1018.55 1019.21 1019.84 1020.41 1020.92
1015.91 1016.03 1016.22 1016.43 1016.64 1016.82 1016.94 1016.98 1016.97 1016.91 1016.81 1016.69 1016.56 1016.40 1016.21 1015.98 1015.69 1015.35 1014.97 1014.57 1014.18 1013.84 1013.58 1013.41 1013.34 1013.35 1013.43 1013.56 1013.71 1013.87 1014.04 1014.25 1014.50 1014.82 1015.23 1015.73 1016.32 1016.97 1017.66 1018.35 1019.01 1019.62 1020.18
1015.86 1016.00 1016.21 1016.46 1016.69 1016.88 1017.00 1017.05 1017.03 1016.96 1016.87 1016.78 1016.67 1016.56 1016.42 1016.24 1016.00 1015.70 1015.34 1014.94 1014.54 1014.15 1013.82 1013.57 1013.40 1013.31 1013.28 1013.29 1013.33 1013.39 1013.48 1013.60 1013.79 1014.05 1014.42 1014.88 1015.45 1016.08 1016.77 1017.46 1018.14 1018.77 1019.36
1015.84 1015.99 1016.20 1016.44 1016.66 1016.83 1016.94 1016.98 1016.96 1016.89 1016.82 1016.74 1016.68 1016.61 1016.53 1016.40 1016.22 1015.96 1015.64 1015.26 1014.85 1014.44 1014.07 1013.75 1013.50 1013.31 1013.18 1013.08 1013.02 1012.99 1012.98 1013.03 1013.15 1013.36 1013.67 1014.10 1014.63 1015.25 1015.91 1016.59 1017.27 1017.91 1018.50
1015.81 1015.94 1016.12 1016.33 1016.52 1016.67 1016.75 1016.77 1016.74 1016.68 1016.62 1016.57 1016.54 1016.52 1016.49 1016.42 1016.28 1016.08 1015.79 1015.44 1015.05 1014.64 1014.25 1013.89 1013.58 1013.32 1013.10 1012.91 1012.76 1012.64 1012.55 1012.53 1012.59 1012.75 1013.02 1013.41 1013.91 1014.49 1015.13 1015.79 1016.44 1017.06 1017.64
1015.71 1015.81 1015.96 1016.12 1016.27 1016.37 1016.42 1016.41 1016.37 1016.32 1016.28 1016.26 1016.26 1016.27 1016.28 1016.25 1016.17 1016.01 1015.76 1015.46 1015.10 1014.71 1014.32 1013.94 1013.60 1013.29 1013.00 1012.75 1012.52 1012.32 1012.18 1012.09 1012.10 1012.23 1012.47 1012.82 1013.29 1013.84 1014.44 1015.06 1015.67 1016.26 1016.81
1015.50 1015.58 1015.69 1015.80 1015.90 1015.96 1015.97 1015.95 1015.91 1015.86 1015.83 1015.83 1015.85 1015.89 1015.93 1015.93 1015.88 1015.75 1015.56 1015.29 1014.97 1014.62 1014.26 1013.89 1013.54 1013.20 1012.88 1012.57 1012.28 1012.03 1011.84 1011.71 1011.69 1011.78 1011.99 1012.32 1012.76 1013.28 1013.84 1014.42 1014.99 1015.53 1016.05
1015.17 1015.23 1015.32 1015.40 1015.46 1015.48 1015.48 1015.45 1015.40 1015.36 1015.34 1015.35 1015.39 1015.43 1015.47 1015.49 1015.45 1015.36 1015.20 1014.98 1014.71 1014.40 1014.08 1013.74 1013.40 1013.06 1012.71 1012.38 1012.05 1011.76 1011.53 1011.38 1011.32 1011.39 1011.59 1011.90 1012.31 1012.80 1013.32 1013.86 1014.38 1014.88 1015.34
1014.75 1014.81 1014.88 1014.94 1014.99 1015.00 1014.99 1014.96 1014.92 1014.89 1014.88 1014.89 1014.92 1014.95 1014.98 1014.99 1014.95 1014.87 1014.73 1014.56 1014.34 1014.09 1013.82 1013.52 1013.21 1012.88 1012.54 1012.19 1011.84 1011.53 1011.27 1011.09 1011.02 1011.07 1011.24 1011.54 1011.92 1012.37 1012.86 1013.35 1013.82 1014.27 1014.68
1014.28 1014.36 1014.43 1014.49 1014.54 1014.56 1014.56 1014.54 1014.52 1014.49 1014.48 1014.48 1014.49 1014.50 1014.50 1014.48 1014.43 1014.35 1014.23 1014.09 1013.92 1013.72 1013.51 1013.27 1013.00 1012.70 1012.37 1012.02 1011.66 1011.33 1011.05 1010.85 1010.76 1010.79 1010.95 1011.21 1011.56 1011.98 1012.42 1012.86 1013.27 1013.67 1014.04
1013.82 1013.91 1014.00 1014.08 1014.15 1014.19 1014.21 1014.21 1014.20 1014.18 1014.17 1014.15 1014.13 1014.10 1014.06 1014.00 1013.92 1013.83 1013.72 1013.61 1013.48 1013.34 1013.19 1013.01 1012.79 1012.53 1012.22 1011.88 1011.53 1011.19 1010.90 1010.68 1010.57 1010.57 1010.69 1010.92 1011.23 1011.59 1011.98 1012.36 1012.72 1013.06 1013.38
1013.41 1013.51 1013.62 1013.72 1013.80 1013.86 1013.90 1013.93 1013.93 1013.92 1013.90 1013.86 1013.80 1013.73 1013.64 1013.54 1013.43 1013.33 1013.22 1013.13 1013.05 1012.96 1012.87 1012.75 1012.59 1012.37 1012.10 1011.79 1011.44 1011.11 1010.80 1010.57 1010.43 1010.40 1010.48 1010.66 1010.92 1011.22 1011.54 1011.86 1012.15 1012.43 1012.70
1013.05 1013.16 1013.27 1013.37 1013.47 1013.55 1013.60 1013.64 1013.66 1013.65 1013.61 1013.55 1013.46 1013.35 1013.22 1013.08 1012.94 1012.82 1012.73 1012.66 1012.61 1012.58 1012.55 1012.49 1012.38 1012.22 1011.99 1011.71 1011.39 1011.06 1010.75 1010.50 1010.34 1010.28 1010.32 1010.44 1010.64 1010.87 1011.12 1011.36 1011.59 1011.80 1012.02
1012.72 1012.81 1012.91 1013.01 1013.10 1013.18 1013.25 1013.29 1013.31 1013.30 1013.25 1013.17 1013.06 1012.91 1012.75 1012.58 1012.43 1012.30 1012.21 1012.17 1012.16 1012.18 1012.20 1012.19 1012.15 1012.03 1011.85 1011.61 1011.32 1011.00 1010.71 1010.45 1010.28 1010.18 1010.18 1010.25 1010.38 1010.55 1010.72 1010.89 1011.04 1011.20 1011.36
1012.39 1012.45 1012.52 1012.59 1012.66 1012.72 1012.78 1012.82 1012.84 1012.82 1012.77 1012.68 1012.55 1012.39 1012.21 1012.03 1011.87 1011.75 1011.67 1011.65 1011.67 1011.73 1011.79 1011.84 1011.84 1011.78 1011.64 1011.44 1011.19 1010.90 1010.62 1010.38 1010.19 1010.08 1010.05 1010.08 1010.16 1010.26 1010.37 1010.48 1010.57 1010.66 1010.77
1012.02 1012.03 1012.05 1012.08 1012.11 1012.15 1012.18 1012.21 1012.22 1012.21 1012.16 1012.06 1011.94 1011.78 1011.60 1011.43 1011.27 1011.16 1011.10 1011.09 1011.14 1011.22 1011.32 1011.40 1011.44 1011.41 1011.32 1011.16 1010.94 1010.69 1010.44 1010.22 1010.04 1009.93 1009.88 1009.89 1009.94 1010.01 1010.08 1010.14 1010.19 1010.24 1010.31
1011.57 1011.53 1011.50 1011.47 1011.47 1011.47 1011.48 1011.50 1011.51 1011.49 1011.45 1011.37 1011.26 1011.11 1010.95 1010.79 1010.65 1010.55 1010.51 1010.51 1010.57 1010.66 1010.77 1010.86 1010.92 1010.92 1010.85 1010.72 1010.54 1010.33 1010.11 1009.92 1009.77 1009.68 1009.64 1009.65 1009.69 1009.76 1009.82 1009.87 1009.90 1009.94 1009.99
1011.03 1010.95 1010.87 1010.81 1010.77 1010.75 1010.74 1010.75 1010.76 1010.75 1010.73 1010.67 1010.57 1010.45 1010.31 1010.17 1010.05 1009.96 1009.92 1009.92 1009.97 1010.06 1010.15 1010.24 1010.29 1010.30 1010.24 1010.14 1009.98 1009.81 1009.63 1009.47 1009.36 1009.29 1009.29 1009.32 1009.39 1009.48 1009.56 1009.63 1009.69 1009.74 1009.80
Thickness
5735 5735 5734 5733 5734 5733 5733 5733 5733 5732 5733 5734 5734 5735 5735 5735 5735 5737 5738 5737 5736 5735 5735 5733 5732 5731 5731 5731 5730 5730 5729 5729 5728 5728 5727 5726 5725 5725 5724 5724 5723 5722 5721
5729 5730 5730 5730 5730 5730 5730 5729 5730 5730 5729 5730 5731 5732 5733 5733 5734 5734 5735 5735 5734 5733 5733 5733 5732 5731 5730 5730 5730 5729 5729 5729 5729 5728 5727 5726 5726 5725 5724 5724 5723 5722 5721
5723 5723 5725 5726 5726 5726 5726 5726 5726 5727 5726 5727 5728 5729 5730 5731 5731 5732 5732 5733 5732 5731 5731 5731 5731 5730 5729 5730 5730 5730 5729 5729 5729 5728 5728 5727 5726 5725 5724 5724 5723 5723 5722
5718 5718 5720 5721 5720 5721 5721 5721 5721 5721 5721 5721 5722 5724 5726 5728 5729 5730 5730 5730 5730 5731 5731 5730 5730 5729 5728 5729 5729 5729 5729 5729 5729 5729 5728 5727 5727 5726 5725 5724 5723 5723 5722
5713 5713 5714 5715 5715 5715 5716 5716 5716 5715 5713 5713 5715 5718 5722 5724 5726 5728 5729 5729 5730 5731 5731 5729 5728 5728 5728 5728 5728 5729 5729 5729 5729 5729 5728 5728 5727 5726 5726 5725 5724 5723 5722
5708 5707 5709 5709 5709 5709 5709 5709 5708 5709 5708 5708 5711 5714 5717 5720 5723 5725 5726 5728 5728 5729 5729 5728 5727 5727 5726 5726 5727 5727 5729 5729 5729 5729 5729 5728 5728 5727 5726 5725 5725 5724 5723
5704 5703 5703 5702 5703 5703 5702 5702 5702 5701 5702 5705 5704 5705 5711 5717 5720 5722 5724 5724 5725 5726 5726 5726 5726 5726 5725 5725 5725 5726 5727 5728 5729 5729 5729 5729 5728 5727 5727 5726 5725 5724 5724
5701 5701 5698 5698 5698 5697 5697 5697 5697 5694 5695 5699 5697 5694 5695 5703 5711 5720 5720 5719 5720 5721 5721 5722 5723 5723 5724 5724 5724 5724 5725 5726 5727 5728 5729 5729 5728 5728 5727 5727 5726 5725 5724
5700 5698 5696 5694 5693 5692 5692 5692 5691 5690 5688 5691 5694 5690 5686 5686 5693 5705 5711 5713 5713 5713 5714 5716 5717 5719 5720 5721 5722 5722 5723 5724 5725 5727 5727 5728 5728 5728 5727 5727 5726 5726 5725
5700 5697 5694 5692 5690 5689 5688 5688 5687 5684 5684 5683 5686 5689 5688 5686 5680 5684 5695 5702 5705 5706 5707 5710 5712 5714 5716 5717 5718 5719 5720 5721 5723 5724 5725 5726 5726 5727 5727 5726 5726 5726 5725
5700 5697 5694 5690 5688 5686 5685 5683 5682 5681 5679 5678 5678 5679 5680 5681 5681 5676 5677 5685 5693 5698 5702 5704 5706 5708 5710 5711 5713 5714 5716 5718 5719 5721 5722 5724 5724 5725 5725 5725 5725 5725 5725
5701 5698 5694 5689 5685 5683 5681 5679 5677 5676 5675 5674 5672 5672 5671 5671 5671 5672 5671 5674 5679 5687 5693 5697 5699 5701 5703 5704 5706 5709 5711 5713 5714 5717 5719 5721 5722 5723 5724 5724 5725 5725 5725
5698 5695 5692 5687 5683 5680 5678 5676 5674 5672 5670 5668 5666 5665 5666 5666 5667 5667 5665 5666 5669 5675 5682 5687 5692 5694 5696 5697 5699 5701 5703 5706 5709 5712 5715 5717 5719 5720 5722 5723 5723 5724 5724
5694 5692 5689 5685 5681 5678 5675 5673 5670 5668 5667 5665 5663 5661 5659 5659 5660 5660 5659 5658 5657 5662 5668 5674 5682 5686 5688 5690 5691 5693 5696 5700 5703 5707 5710 5712 5715 5717 5719 5721 5722 5722 5723
5692 5690 5687 5683 5679 5675 5671 5668 5665 5663 5661 5659 5657 5656 5654 5653 5654 5654 5654 5653 5649 5648 5653 5661 5667 5674 5678 5681 5684 5686 5689 5694 5697 5701 5705 5708 5711 5713 5715 5717 5719 5720 5721
5688 5685 5682 5679 5675 5672 5668 5664 5660 5658 5655 5652 5650 5647 5646 5645 5645 5644 5644 5644 5645 5643 5644 5651 5655 5663 5668 5672 5675 5678 5682 5686 5691 5695 5699 5703 5706 5708 5711 5714 5716 5717 5718
5686 5682 5679 5675 5672 5668 5664 5660 5656 5652 5649 5645 5643 5641 5638 5637 5634 5634 5633 5634 5634 5635 5635 5641 5646 5652 5656 5660 5665 5669 5674 5678 5684 5689 5693 5697 5701 5704 5707 5709 5712 5714 5715
5685 5681 5677 5672 5668 5665 5661 5656 5651 5647 5643 5639 5636 5633 5630 5628 5626 5624 5623 5623 5623 5625 5625 5628 5633 5638 5643 5650 5655 5660 5665 5671 5677 5682 5686 5690 5694 5698 5702 5705 5707 5710 5712
5683 5678 5673 5669 5664 5660 5655 5651 5646 5641 5636 5632 5628 5625 5622 5620 5617 5615 5614 5613 5614 5616 5618 5619 5623 5628 5634 5639 5644 5650 5656 5662 5669 5674 5679 5683 5687 5692 5696 5700 5703 5706 5708
5680 5675 5670 5665 5660 5656 5651 5646 5640 5635 5630 5625 5621 5618 5615 5612 5610 5608 5606 5605 5605 5605 5606 5609 5612 5617 5623 5629 5634 5639 5644 5652 5659 5666 5671 5676 5680 5684 5689 5694 5698 5702 5705
5677 5672 5666 5661 5656 5651 5646 5641 5634 5629 5623 5618 5614 5610 5608 5607 5605 5602 5600 5599 5597 5596 5596 5598 5602 5607 5612 5617 5622 5629 5634 5642 5650 5657 5661 5667 5672 5677 5682 5687 5692 5697 5701
5673 5667 5661 5655 5650 5645 5639 5632 5625 5619 5613 5609 5606 5603 5601 5600 5600 5597 5595 5593 5590 5588 5588 5588 5591 5595 5600 5605 5611 5617 5622 5629 5636 5647 5651 5657 5664 5669 5675 5681 5687 5691 5695
5667 5661 5656 5651 5645 5639 5632 5625 5617 5611 5606 5602 5599 5596 5595 5596 5595 5593 5590 5587 5585 5583 5582 5581 5582 5585 5589 5595 5599 5604 5609 5616 5625 5634 5639 5647 5655 5660 5668 5674 5680 5685 5689
5660 5655 5650 5645 5639 5634 5627 5619 5612 5605 5600 5596 5593 5591 5589 5588 5587 5585 5584 5582 5581 5580 5579 5578 5579 5581 5584 5587 5590 5594 5599 5607 5618 5626 5632 5637 5645 5651 5658 5664 5671 5676 5682
5654 5648 5644 5639 5633 5628 5622 5614 5605 5600 5596 5593 5590 5589 5587 5585 5583 5580 5577 5576 5575 5575 5576 5577 5578 5579 5581 5582 5583 5585 5590 5596 5605 5616 5625 5629 5636 5641 5648 5654 5661 5667 5673
5649 5643 5639 5634 5629 5623 5617 5609 5600 5595 5591 5589 5587 5586 5584 5582 5580 5576 5572 5570 5569 5569 5569 5570 5572 5574 5575 5577 5579 5580 5583 5588 5596 5605 5616 5621 5627 5631 5637 5645 5651 5658 5664